Location: Newark
(59.4564°N, 26.6917°E)
Time: 23:36:45
(UTC+00:00)

Vanguard 3 - Pass Details

Date: 23 November 2019
Orbit: 508 x 3263 km, 33.3° (Epoch: 14 December)

Event Time Altitude Azimuth Distance (km) Brightness Sun altitude
Rises 14:04:53 0° 251° (WSW) 7,144 13.9 -4.1°
Reaches altitude 10° 14:10:54 10° 240° (WSW) 6,201 13.6 -4.7°
Maximum altitude 14:24:55 26° 195° (SSW) 4,716 11.6 -6.2°
Drops below altitude 10° 14:36:45 10° 148° (SSE) 5,180 11.2 -7.5°
Sets 14:41:10 0° 137° (SE) 5,799 11.3 -8.0°
